When you browse on this site, cookies collect data to enhance your experience and personalize the content and advertising you see.
Visit our Privacy Policy to learn more. By continuing to use the site, you agree to this use of cookies and data.
  • In Portugal
  • List of Countries
  • For 7 days
  • Water Temperature
  • Weather Map
  • Weather Widgets
  • user-avatar
    Login

    Hourly Weather Salnikovschina

    Today, 20 January, Monday

    Time Temperature Precipitation Wind Pressure Humidity
    00:00 0°C° 0 mm 5 mps 749 mmHg 88%
    01:00 0°C° 0 mm 5 mps 749 mmHg 89%
    02:00 -1°C° 0 mm 6 mps 749 mmHg 89%
    03:00 0°C° 0 mm 5 mps 749 mmHg 89%
    04:00 0°C° 0 mm 5 mps 749 mmHg 89%
    05:00 0°C° 0 mm 4 mps 749 mmHg 89%
    06:00 -1°C° 0 mm 5 mps 749 mmHg 90%
    07:00 -1°C° 0 mm 5 mps 749 mmHg 91%
    08:00 -1°C° 0 mm 5 mps 750 mmHg 92%
    09:00 -1°C° 0 mm 5 mps 750 mmHg 92%
    10:00 -1°C° 0 mm 5 mps 750 mmHg 93%
    11:00 -1°C° 0 mm 5 mps 750 mmHg 93%
    12:00 -1°C° 0 mm 5 mps 750 mmHg 92%
    13:00 -1°C° 0 mm 5 mps 750 mmHg 90%
    14:00 -1°C° 0 mm 5 mps 750 mmHg 89%
    15:00 -1°C° 0 mm 5 mps 749 mmHg 87%
    16:00 -1°C° 0 mm 5 mps 749 mmHg 85%
    17:00 -1°C° 0 mm 5 mps 749 mmHg 83%
    18:00 -1°C° 0 mm 5 mps 748 mmHg 83%
    19:00 -1°C° 0 mm 5 mps 748 mmHg 83%
    20:00 -2°C° 0 mm 5 mps 747 mmHg 82%
    21:00 -2°C° 0 mm 5 mps 747 mmHg 81%
    22:00 -2°C° 0 mm 5 mps 746 mmHg 80%
    23:00 -3°C° 0 mm 6 mps 745 mmHg 78%

    Tomorrow, 21 January, Tuesday

    Time Temperature Precipitation Wind Pressure Humidity
    00:00 -3°C° 0 mm 6 mps 745 mmHg 80%
    01:00 -2°C° 0 mm 6 mps 744 mmHg 82%
    02:00 -1°C° 0 mm 5 mps 743 mmHg 83%
    03:00 -2°C° 0.1 mm 6 mps 742 mmHg 85%
    04:00 -2°C° 0.1 mm 6 mps 741 mmHg 88%
    05:00 -1°C° 0.1 mm 6 mps 740 mmHg 90%
    06:00 -1°C° 0.1 mm 6 mps 740 mmHg 90%
    07:00 +1°C° 0.1 mm 6 mps 739 mmHg 91%
    08:00 +1°C° 0.1 mm 6 mps 739 mmHg 92%
    09:00 +2°C° 0 mm 6 mps 738 mmHg 91%
    10:00 +2°C° 0 mm 6 mps 737 mmHg 91%
    11:00 +2°C° 0 mm 6 mps 737 mmHg 91%
    12:00 +3°C° 0.2 mm 6 mps 736 mmHg 91%
    13:00 +3°C° 0.2 mm 5 mps 736 mmHg 91%
    14:00 +3°C° 0.2 mm 5 mps 735 mmHg 91%
    15:00 +3°C° 1.3 mm 5 mps 735 mmHg 92%
    16:00 +3°C° 1.3 mm 5 mps 734 mmHg 93%
    17:00 +3°C° 1.3 mm 5 mps 733 mmHg 94%
    18:00 +2°C° 0.2 mm 6 mps 733 mmHg 89%
    19:00 +2°C° 0.2 mm 6 mps 734 mmHg 84%
    20:00 +1°C° 0.2 mm 6 mps 734 mmHg 79%
    21:00 -1°C° 0 mm 6 mps 734 mmHg 77%
    22:00 -2°C° 0 mm 6 mps 734 mmHg 75%
    23:00 -2°C° 0 mm 6 mps 734 mmHg 72%

    Day after tomorrow, 22 January, Wednesday

    Time Temperature Precipitation Wind Pressure Humidity
    00:00 -3°C° 0 mm 6 mps 734 mmHg 74%
    01:00 -3°C° 0 mm 6 mps 734 mmHg 76%
    02:00 -3°C° 0 mm 6 mps 734 mmHg 78%
    03:00 -3°C° 0 mm 6 mps 733 mmHg 78%
    04:00 -3°C° 0 mm 6 mps 732 mmHg 79%
    05:00 -3°C° 0 mm 6 mps 731 mmHg 79%
    06:00 -3°C° 0.1 mm 6 mps 731 mmHg 80%
    07:00 -4°C° 0.1 mm 6 mps 731 mmHg 81%
    08:00 -4°C° 0.1 mm 6 mps 730 mmHg 82%
    09:00 -4°C° 0.3 mm 6 mps 730 mmHg 80%
    10:00 -3°C° 0.3 mm 6 mps 730 mmHg 78%
    11:00 -3°C° 0.3 mm 6 mps 730 mmHg 77%
    12:00 -3°C° 0.1 mm 6 mps 730 mmHg 73%
    13:00 -3°C° 0.1 mm 6 mps 729 mmHg 70%
    14:00 -3°C° 0.1 mm 6 mps 729 mmHg 67%
    15:00 -4°C° 0 mm 6 mps 730 mmHg 70%
    16:00 -4°C° 0 mm 6 mps 730 mmHg 74%
    17:00 -5°C° 0 mm 6 mps 730 mmHg 77%
    18:00 -5°C° 0.1 mm 6 mps 730 mmHg 78%
    19:00 -5°C° 0.1 mm 6 mps 731 mmHg 79%
    20:00 -5°C° 0.1 mm 6 mps 731 mmHg 80%
    21:00 -6°C° 0 mm 6 mps 732 mmHg 76%
    22:00 -6°C° 0 mm 6 mps 732 mmHg 72%
    23:00 -8°C° 0 mm 6 mps 733 mmHg 68%

    23 January, Thursday

    Time Temperature Precipitation Wind Pressure Humidity
    00:00 -8°C° 0 mm 6 mps 734 mmHg 67%
    01:00 -9°C° 0 mm 6 mps 735 mmHg 65%
    02:00 -9°C° 0 mm 6 mps 735 mmHg 63%
    03:00 -9°C° 0 mm 6 mps 736 mmHg 61%
    04:00 -9°C° 0 mm 6 mps 736 mmHg 58%
    05:00 -9°C° 0 mm 6 mps 737 mmHg 55%
    06:00 -9°C° 0 mm 6 mps 737 mmHg 55%
    07:00 -9°C° 0 mm 6 mps 738 mmHg 54%
    08:00 -9°C° 0 mm 6 mps 738 mmHg 54%
    09:00 -9°C° 0 mm 6 mps 739 mmHg 53%
    10:00 -8°C° 0 mm 6 mps 739 mmHg 52%
    11:00 -8°C° 0 mm 6 mps 740 mmHg 51%
    12:00 -8°C° 0 mm 6 mps 740 mmHg 51%
    13:00 -8°C° 0 mm 6 mps 741 mmHg 51%
    14:00 -7°C° 0 mm 5 mps 741 mmHg 51%
    15:00 -7°C° 0 mm 4 mps 741 mmHg 55%
    16:00 -6°C° 0 mm 3 mps 741 mmHg 59%
    17:00 -6°C° 0 mm 2 mps 741 mmHg 64%
    18:00 -5°C° 0 mm 2 mps 741 mmHg 66%
    19:00 -6°C° 0 mm 3 mps 741 mmHg 69%
    20:00 -6°C° 0 mm 3 mps 740 mmHg 71%
    21:00 -5°C° 0 mm 3 mps 740 mmHg 76%
    22:00 -5°C° 0 mm 4 mps 739 mmHg 81%
    23:00 -5°C° 0 mm 4 mps 738 mmHg 87%

    24 January, Friday

    Time Temperature Precipitation Wind Pressure Humidity
    00:00 -6°C° 0.5 mm 5 mps 737 mmHg 89%
    01:00 -5°C° 0.5 mm 5 mps 736 mmHg 91%
    02:00 -5°C° 0.5 mm 6 mps 735 mmHg 93%
    03:00 -5°C° 0.6 mm 6 mps 734 mmHg 93%
    04:00 -4°C° 0.6 mm 5 mps 733 mmHg 94%
    05:00 -4°C° 0.6 mm 5 mps 732 mmHg 95%
    06:00 -2°C° 0.3 mm 5 mps 732 mmHg 93%
    07:00 -2°C° 0.3 mm 6 mps 732 mmHg 92%
    08:00 +1°C° 0.3 mm 6 mps 732 mmHg 90%
    09:00 +1°C° 0 mm 6 mps 732 mmHg 87%
    10:00 -1°C° 0 mm 6 mps 732 mmHg 84%
    11:00 -1°C° 0 mm 6 mps 733 mmHg 80%
    12:00 0°C° 0 mm 5 mps 733 mmHg 80%
    13:00 0°C° 0 mm 5 mps 733 mmHg 79%
    14:00 -1°C° 0 mm 4 mps 734 mmHg 79%
    15:00 -1°C° 0 mm 4 mps 734 mmHg 83%
    16:00 -1°C° 0 mm 3 mps 734 mmHg 88%
    17:00 -2°C° 0 mm 3 mps 735 mmHg 92%
    18:00 -2°C° 0 mm 3 mps 735 mmHg 93%
    19:00 -2°C° 0 mm 2 mps 735 mmHg 93%
    20:00 -2°C° 0 mm 2 mps 735 mmHg 94%
    21:00 -2°C° 0 mm 2 mps 735 mmHg 95%
    22:00 -2°C° 0 mm 2 mps 735 mmHg 96%
    23:00 -3°C° 0 mm 2 mps 735 mmHg 96%

    25 January, Saturday

    Time Temperature Precipitation Wind Pressure Humidity
    00:00 -2°C° 0 mm 2 mps 734 mmHg 97%
    01:00 -2°C° 0 mm 2 mps 734 mmHg 97%
    02:00 -2°C° 0 mm 2 mps 734 mmHg 98%
    03:00 -1°C° 0.5 mm 2 mps 733 mmHg 98%
    04:00 -1°C° 0.5 mm 2 mps 733 mmHg 98%
    05:00 +1°C° 0.5 mm 2 mps 732 mmHg 98%
    06:00 +1°C° 0.4 mm 2 mps 732 mmHg 97%
    07:00 +1°C° 0.4 mm 3 mps 732 mmHg 97%
    08:00 +2°C° 0.4 mm 3 mps 732 mmHg 97%
    09:00 +2°C° 0.3 mm 3 mps 732 mmHg 96%
    10:00 +2°C° 0.3 mm 3 mps 732 mmHg 96%
    11:00 +2°C° 0.3 mm 3 mps 733 mmHg 95%
    12:00 +2°C° 0.2 mm 3 mps 733 mmHg 96%
    13:00 +2°C° 0.2 mm 3 mps 733 mmHg 96%
    14:00 +2°C° 0.2 mm 3 mps 733 mmHg 96%
    15:00 +2°C° 0.1 mm 3 mps 734 mmHg 96%
    16:00 +1°C° 0.1 mm 3 mps 734 mmHg 96%
    17:00 +1°C° 0.1 mm 3 mps 734 mmHg 96%
    18:00 +1°C° 0 mm 2 mps 735 mmHg 96%
    19:00 +1°C° 0 mm 2 mps 735 mmHg 96%
    20:00 -1°C° 0 mm 2 mps 735 mmHg 96%
    21:00 +1°C° 0 mm 2 mps 735 mmHg 95%
    22:00 +1°C° 0 mm 2 mps 735 mmHg 94%
    23:00 0°C° 0 mm 3 mps 735 mmHg 93%
    Show more